Hourly Data Report for March 01, 2019

TORONTO CITY
ONTARIO
Current Station Operator: ECCC - MSC

43°40'00.000" N
79°24'00.000" W
112.50 m
6158355
71508
XTO

Download Data

Hourly Data (March 2019)
Hourly Data Report for March 1, 2019
TIME
LST
Temp Definition
°C
Dew Point Definition
°C
Rel Hum Definition
%
Precip. Amount Definition
mm

Wind Dir Definition
10's deg

Wind Spd Definition
km/h
Visibility Definition
km
Stn Press Definition
kPa
Hmdx Definition


Wind Chill Definition


Weather Definition


00:00 -6.1 -10.5 71 0.0       100.98     LegendNANA
01:00 -6.2 -10.2 73 0.0       100.99     LegendNANA
02:00 -6.2 -10.0 74 0.0       100.98     LegendNANA
03:00 -6.5 -9.9 76 0.0       100.94     LegendNANA
04:00 -6.5 -9.6 78 0.0       100.96     LegendNANA
05:00 -6.5 -9.5 79 0.0       100.97     LegendNANA
06:00 -6.9 -9.7 81 0.0       101.01     LegendNANA
07:00 -6.7 -9.3 82 0.0       101.06     LegendNANA
08:00 -6.1 -8.9 81 0.0       101.05     LegendNANA
09:00 -4.7 -9.2 71 0.0       101.10     LegendNANA
10:00 -2.4 -9.3 59 0.0       101.07     LegendNANA
11:00 -2.2 -8.8 61 0.0       101.09     LegendNANA
12:00 -1.6 -9.4 55 0.0       101.06     LegendNANA
13:00 -0.4 -8.1 56 0.0       101.02     LegendNANA
14:00 -0.8 -7.1 62 0.0       100.95     LegendNANA
15:00 -1.5 -6.8 67 0.0       100.89     LegendNANA
16:00 -1.7 -7.0 67 0.0       100.90     LegendNANA
17:00 -1.9 -7.0 68 0.0       100.89     LegendNANA
18:00 -2.0 -7.0 69 0.0       100.87     LegendNANA
19:00 -2.1 -6.8 70 0.0       100.86     LegendNANA
20:00 -2.2 -6.8 71 0.0       100.87     LegendNANA
21:00 -2.3 -6.6 72 0.0       100.87     LegendNANA
22:00 -2.5 -6.9 72 0.0       100.82     LegendNANA
23:00 -2.6 -7.7 68 0.0       100.81     LegendNANA

Notes on Data Quality.

Legend

  • E = Estimated
  • M = Missing
  • NA = Not Available*
  • [empty] = Indicates an unobserved value
Date modified: